• In Deutschland
  • Länderverzeichnis
  • Für 7 Tage
  • Wassertemperatur
  • Satellitenkarten
  • Wetterkarte
  • Widgets
  • user-avatar
    Anmelden

    Stündliche Wetter Syke

    Heute, 23 Juni, Samstag

    Zeit Temperatur Niederschläge Wind Luftdruck Luftfeuchtigkeit
    00:00 +10°C° 0 mm 5 m/S 765 mmHg 75%
    01:00 +10°C° 0 mm 5 m/S 765 mmHg 72%
    02:00 +10°C° 0,1 mm 5 m/S 765 mmHg 76%
    03:00 +10°C° 0,1 mm 5 m/S 765 mmHg 80%
    04:00 +10°C° 0,1 mm 5 m/S 765 mmHg 83%
    05:00 +12°C° 0,1 mm 5 m/S 765 mmHg 83%
    06:00 +11°C° 0,1 mm 6 m/S 765 mmHg 83%
    07:00 +11°C° 0,1 mm 6 m/S 765 mmHg 83%
    08:00 +11°C° 0,1 mm 6 m/S 765 mmHg 80%
    09:00 +13°C° 0,1 mm 6 m/S 765 mmHg 77%
    10:00 +12°C° 0,1 mm 7 m/S 765 mmHg 74%
    11:00 +14°C° 0,1 mm 6 m/S 765 mmHg 74%
    12:00 +14°C° 0,1 mm 6 m/S 765 mmHg 75%
    13:00 +14°C° 0,1 mm 6 m/S 765 mmHg 75%
    14:00 +14°C° 0,1 mm 6 m/S 765 mmHg 76%
    15:00 +14°C° 0,1 mm 6 m/S 765 mmHg 77%
    16:00 +14°C° 0,1 mm 6 m/S 765 mmHg 78%
    17:00 +14°C° 0 mm 5 m/S 764 mmHg 78%
    18:00 +14°C° 0 mm 5 m/S 764 mmHg 78%
    19:00 +14°C° 0 mm 4 m/S 764 mmHg 78%
    20:00 +13°C° 0 mm 4 m/S 764 mmHg 80%
    21:00 +13°C° 0 mm 4 m/S 764 mmHg 81%
    22:00 +12°C° 0 mm 3 m/S 764 mmHg 83%
    23:00 +12°C° 0 mm 3 m/S 764 mmHg 84%

    Morgen, 24 Juni, Sonntag

    Zeit Temperatur Niederschläge Wind Luftdruck Luftfeuchtigkeit
    00:00 +12°C° 0 mm 3 m/S 764 mmHg 86%
    01:00 +12°C° 0 mm 3 m/S 764 mmHg 87%
    02:00 +11°C° 0 mm 4 m/S 764 mmHg 88%
    03:00 +11°C° 0 mm 4 m/S 764 mmHg 89%
    04:00 +11°C° 0 mm 4 m/S 764 mmHg 90%
    05:00 +12°C° 0 mm 4 m/S 764 mmHg 89%
    06:00 +12°C° 0 mm 4 m/S 764 mmHg 88%
    07:00 +12°C° 0 mm 4 m/S 764 mmHg 86%
    08:00 +13°C° 0 mm 4 m/S 764 mmHg 83%
    09:00 +14°C° 0 mm 4 m/S 764 mmHg 80%
    10:00 +15°C° 0 mm 5 m/S 764 mmHg 77%
    11:00 +15°C° 0,1 mm 5 m/S 764 mmHg 78%
    12:00 +15°C° 0,1 mm 4 m/S 764 mmHg 79%
    13:00 +15°C° 0,1 mm 4 m/S 764 mmHg 81%
    14:00 +15°C° 0,1 mm 5 m/S 764 mmHg 81%
    15:00 +15°C° 0,1 mm 5 m/S 764 mmHg 81%
    16:00 +16°C° 0,1 mm 5 m/S 764 mmHg 82%
    17:00 +15°C° 0,1 mm 5 m/S 764 mmHg 84%
    18:00 +15°C° 0,1 mm 4 m/S 764 mmHg 86%
    19:00 +14°C° 0,1 mm 4 m/S 764 mmHg 88%
    20:00 +14°C° 0 mm 4 m/S 764 mmHg 90%
    21:00 +14°C° 0 mm 4 m/S 764 mmHg 92%
    22:00 +13°C° 0 mm 3 m/S 764 mmHg 94%
    23:00 +13°C° 0 mm 3 m/S 764 mmHg 94%

    übermorgen, 25 Juni, Montag

    Zeit Temperatur Niederschläge Wind Luftdruck Luftfeuchtigkeit
    00:00 +13°C° 0 mm 3 m/S 764 mmHg 94%
    01:00 +13°C° 0 mm 3 m/S 764 mmHg 94%
    02:00 +13°C° 0 mm 3 m/S 764 mmHg 94%
    03:00 +12°C° 0 mm 3 m/S 764 mmHg 95%
    04:00 +12°C° 0 mm 3 m/S 764 mmHg 95%
    05:00 +12°C° 0 mm 3 m/S 764 mmHg 92%
    06:00 +13°C° 0 mm 4 m/S 764 mmHg 89%
    07:00 +14°C° 0 mm 4 m/S 765 mmHg 87%
    08:00 +15°C° 0 mm 4 m/S 765 mmHg 82%
    09:00 +17°C° 0 mm 4 m/S 765 mmHg 77%
    10:00 +18°C° 0 mm 4 m/S 765 mmHg 72%
    11:00 +19°C° 0 mm 5 m/S 765 mmHg 69%
    12:00 +20°C° 0 mm 5 m/S 765 mmHg 66%
    13:00 +21°C° 0 mm 5 m/S 765 mmHg 63%
    14:00 +21°C° 0 mm 5 m/S 765 mmHg 65%
    15:00 +21°C° 0 mm 5 m/S 765 mmHg 67%
    16:00 +21°C° 0 mm 6 m/S 765 mmHg 69%
    17:00 +20°C° 0 mm 5 m/S 765 mmHg 73%
    18:00 +19°C° 0 mm 5 m/S 765 mmHg 77%
    19:00 +17°C° 0 mm 5 m/S 765 mmHg 80%
    20:00 +15°C° 0 mm 4 m/S 766 mmHg 84%
    21:00 +14°C° 0 mm 3 m/S 766 mmHg 88%
    22:00 +13°C° 0 mm 3 m/S 766 mmHg 91%
    23:00 +12°C° 0 mm 3 m/S 766 mmHg 92%

    26 Juni, Dienstag

    Zeit Temperatur Niederschläge Wind Luftdruck Luftfeuchtigkeit
    00:00 +11°C° 0 mm 3 m/S 767 mmHg 93%
    01:00 +11°C° 0 mm 3 m/S 767 mmHg 94%
    02:00 +10°C° 0 mm 2 m/S 767 mmHg 94%
    03:00 +10°C° 0 mm 2 m/S 767 mmHg 94%
    04:00 +10°C° 0 mm 2 m/S 767 mmHg 94%
    05:00 +12°C° 0 mm 2 m/S 767 mmHg 89%
    06:00 +14°C° 0 mm 2 m/S 767 mmHg 84%
    07:00 +15°C° 0 mm 2 m/S 767 mmHg 79%
    08:00 +17°C° 0 mm 2 m/S 767 mmHg 72%
    09:00 +18°C° 0 mm 2 m/S 767 mmHg 65%
    10:00 +20°C° 0 mm 2 m/S 767 mmHg 58%
    11:00 +21°C° 0 mm 3 m/S 767 mmHg 55%
    12:00 +22°C° 0 mm 3 m/S 767 mmHg 52%
    13:00 +24°C° 0 mm 3 m/S 767 mmHg 50%
    14:00 +24°C° 0 mm 3 m/S 767 mmHg 52%
    15:00 +24°C° 0 mm 3 m/S 767 mmHg 54%
    16:00 +24°C° 0 mm 3 m/S 767 mmHg 55%
    17:00 +22°C° 0 mm 3 m/S 767 mmHg 61%
    18:00 +21°C° 0 mm 3 m/S 767 mmHg 68%
    19:00 +20°C° 0 mm 3 m/S 767 mmHg 74%
    20:00 +18°C° 0 mm 3 m/S 767 mmHg 80%
    21:00 +16°C° 0 mm 2 m/S 767 mmHg 86%
    22:00 +14°C° 0 mm 2 m/S 767 mmHg 93%
    23:00 +14°C° 0 mm 2 m/S 767 mmHg 93%

    27 Juni, Mittwoch

    Zeit Temperatur Niederschläge Wind Luftdruck Luftfeuchtigkeit
    00:00 +13°C° 0 mm 2 m/S 767 mmHg 93%
    01:00 +13°C° 0 mm 1 m/S 767 mmHg 93%
    02:00 +13°C° 0 mm 1 m/S 767 mmHg 93%
    03:00 +13°C° 0 mm 1 m/S 767 mmHg 92%
    04:00 +13°C° 0 mm 1 m/S 767 mmHg 92%
    05:00 +14°C° 0 mm 1 m/S 767 mmHg 88%
    06:00 +16°C° 0 mm 1 m/S 767 mmHg 84%
    07:00 +19°C° 0 mm 1 m/S 767 mmHg 80%
    08:00 +21°C° 0 mm 1 m/S 767 mmHg 75%
    09:00 +23°C° 0 mm 1 m/S 767 mmHg 69%
    10:00 +25°C° 0 mm 1 m/S 767 mmHg 63%
    11:00 +26°C° 0 mm 1 m/S 767 mmHg 59%
    12:00 +27°C° 0 mm 2 m/S 767 mmHg 56%
    13:00 +28°C° 0 mm 2 m/S 767 mmHg 52%
    14:00 +29°C° 0 mm 2 m/S 767 mmHg 52%
    15:00 +29°C° 0 mm 2 m/S 766 mmHg 52%
    16:00 +29°C° 0 mm 2 m/S 766 mmHg 51%
    17:00 +28°C° 0 mm 2 m/S 766 mmHg 57%
    18:00 +27°C° 0 mm 2 m/S 766 mmHg 62%
    19:00 +26°C° 0 mm 3 m/S 766 mmHg 68%
    20:00 +24°C° 0 mm 2 m/S 766 mmHg 72%
    21:00 +21°C° 0 mm 2 m/S 767 mmHg 76%
    22:00 +20°C° 0 mm 2 m/S 767 mmHg 80%
    23:00 +19°C° 0 mm 2 m/S 767 mmHg 81%

    28 Juni, Donnerstag

    Zeit Temperatur Niederschläge Wind Luftdruck Luftfeuchtigkeit
    00:00 +19°C° 0 mm 2 m/S 767 mmHg 83%
    01:00 +18°C° 0 mm 2 m/S 767 mmHg 84%
    02:00 +18°C° 0 mm 2 m/S 767 mmHg 84%
    03:00 +18°C° 0 mm 2 m/S 767 mmHg 84%
    04:00 +17°C° 0 mm 2 m/S 767 mmHg 85%
    05:00 +19°C° 0 mm 2 m/S 767 mmHg 79%
    06:00 +20°C° 0 mm 3 m/S 767 mmHg 73%
    07:00 +21°C° 0 mm 3 m/S 767 mmHg 66%
    08:00 +24°C° 0 mm 3 m/S 767 mmHg 61%
    09:00 +26°C° 0 mm 4 m/S 767 mmHg 55%
    10:00 +28°C° 0 mm 4 m/S 767 mmHg 50%
    11:00 +28°C° 0 mm 4 m/S 767 mmHg 48%
    12:00 +29°C° 0 mm 5 m/S 767 mmHg 47%
    13:00 +30°C° 0 mm 5 m/S 766 mmHg 46%
    14:00 +30°C° 0 mm 4 m/S 766 mmHg 46%
    15:00 +30°C° 0 mm 4 m/S 766 mmHg 46%
    16:00 +30°C° 0 mm 4 m/S 766 mmHg 46%
    17:00 +29°C° 0 mm 4 m/S 766 mmHg 50%
    18:00 +29°C° 0 mm 3 m/S 766 mmHg 55%
    19:00 +28°C° 0 mm 3 m/S 765 mmHg 59%
    20:00 +26°C° 0 mm 3 m/S 766 mmHg 61%
    21:00 +24°C° 0 mm 3 m/S 766 mmHg 62%
    22:00 +21°C° 0 mm 3 m/S 766 mmHg 63%
    23:00 +20°C° 0 mm 2 m/S 766 mmHg 64%
    Mehr zeigen